Cloud_Cover
69 94 100 86 40 50 87 100 90 11 8 99 78 99 5 5 5 5 82 100 100 100 55 6 5 0 1 4 5 5 5 5 1 0 0 3 5 5 1 0 4 14 7 15 1 2 0 41 5
98 84 100 100 79 6 100 100 47 8 9 100 97 20 8 21 20 5 80 4 11 29 5 16 3 5 0 3 4 4 4 4 1 0 4 0 5 7 5 0 12 14 8 17 23 4 3 3 0
94 100 98 100 100 94 100 100 7 23 8 82 47 85 98 70 8 1 5 1 0 3 3 6 0 5 3 0 0 0 0 0 0 0 0 0 5 7 1 16 13 1 5 5 5 7 1 0 0
100 99 83 7 100 100 100 100 100 89 100 69 68 100 89 68 5 10 3 0 0 0 1 3 0 5 4 0 0 0 0 0 0 0 0 0 0 4 5 7 5 5 2 0 5 5 2 0 0
100 43 70 4 5 97 100 100 100 100 100 22 64 100 100 68 5 8 0 5 5 4 4 28 0 0 5 4 3 5 5 0 0 0 0 0 0 8 5 5 5 5 2 0 0 4 5 7 2
99 26 4 6 9 41 100 100 100 100 89 91 31 100 100 17 94 8 2 5 7 29 13 88 0 0 5 0 3 5 0 0 0 0 0 4 1 3 5 2 2 4 2 3 23 75 10 22 4
100 98 3 5 81 94 92 100 100 100 95 100 66 100 100 43 20 0 0 2 73 7 5 93 1 0 0 0 3 1 0 0 0 0 0 5 5 5 34 5 4 4 4 1 5 53 100 43 5
100 100 72 5 6 27 100 100 100 100 100 100 96 76 57 89 5 0 0 5 4 4 3 62 5 3 0 0 3 0 0 0 0 0 0 0 0 21 23 26 22 13 6 5 34 71 97 44 5
100 100 79 33 69 100 100 100 100 100 76 84 41 2 21 6 8 0 0 2 0 2 6 51 0 0 2 14 18 5 10 12 0 0 0 0 0 31 86 96 56 58 41 100 99 100 84 20 14
100 100 13 96 80 34 100 62 100 78 98 5 3 97 1 1 15 0 0 25 4 0 11 99 44 0 14 5 32 53 81 27 0 0 0 3 48 100 100 100 77 69 100 89 26 18 8 18 15
100 62 100 100 60 100 42 2 51 5 44 33 5 2 1 4 100 5 0 1 0 0 37 78 64 0 6 8 46 70 39 48 9 29 35 93 100 100 100 99 100 78 12 43 8 22 5 7 17
100 35 100 100 95 96 27 19 5 17 8 100 8 0 4 0 92 5 5 0 0 0 0 72 47 0 13 40 47 47 78 56 78 75 100 98 100 100 100 40 9 5 20 0 0 0 3 5 5
100 89 95 100 100 96 80 56 67 23 8 100 100 0 0 0 4 2 2 0 0 10 2 52 67 2 37 16 50 62 100 85 100 100 100 100 100 100 99 24 5 5 6 2 0 5 5 7 15
5 100 100 100 100 100 100 45 93 44 99 100 91 0 0 0 1 5 5 5 0 10 7 2 98 22 15 16 53 95 100 100 100 100 100 100 100 99 100 69 8 5 12 0 0 5 5 5 5
53 6 100 98 81 100 94 100 46 90 67 100 100 0 5 0 0 5 5 5 5 13 10 26 98 49 22 88 35 100 100 100 100 100 100 100 100 100 100 70 12 16 6 0 0 2 5 5 16
22 37 15 55 86 43 100 100 74 100 87 100 100 67 5 1 0 43 5 16 37 5 28 12 70 29 73 100 100 87 100 100 100 100 100 100 100 100 100 76 100 99 2 23 99 28 2 83 100
4 5 14 28 100 92 90 100 94 98 96 99 100 100 100 95 5 5 5 5 31 58 36 36 91 89 100 82 100 58 100 100 100 100 100 100 92 66 100 100 100 34 2 100 100 53 35 100 100
4 15 27 77 22 90 60 75 100 100 100 100 100 100 100 99 11 10 90 100 51 14 34 89 100 100 100 100 100 93 100 100 100 100 100 100 100 100 100 100 57 0 89 100 100 26 86 100 100
100 100 55 99 96 77 42 98 96 100 100 100 100 100 92 100 100 15 29 100 100 17 5 100 100 100 100 100 100 100 100 100 100 100 100 100 100 70 66 34 4 63 100 81 29 10 86 100 100
74 9 30 99 100 99 75 20 50 55 100 100 100 100 100 100 76 5 5 87 42 5 5 95 100 100 100 100 100 100 100 96 97 100 100 100 62 48 5 5 65 88 24 17 5 36 100 100 100
2 5 59 100 98 98 100 94 91 12 100 100 98 100 100 100 100 46 16 98 100 91 71 94 89 100 100 100 100 100 100 100 100 100 100 100 98 36 5 5 52 21 5 5 5 5 92 99 100
5 38 21 100 100 100 100 14 96 90 36 7 43 100 100 100 100 99 33 50 100 98 100 99 100 100 100 100 100 100 100 100 100 100 100 98 100 21 5 2 11 5 5 5 5 5 87 100 100
63 73 60 100 100 100 100 59 20 99 12 100 100 100 91 99 100 66 70 18 100 100 90 89 100 100 100 100 100 100 100 100 100 100 100 69 100 64 31 5 5 5 5 5 5 5 38 100 100
92 8 57 99 100 100 100 95 100 100 100 100 98 82 96 100 26 63 96 25 11 65 75 100 100 100 100 100 100 100 100 100 100 100 100 100 100 89 48 20 7 5 5 5 5 5 3 100 100
99 85 91 99 100 100 100 98 100 100 95 100 100 100 99 54 94 72 28 98 20 53 86 95 100 100 100 100 100 100 100 100 100 100 94 100 99 100 33 39 46 34 21 5 5 14 56 96 54
99 100 100 41 11 36 99 100 100 100 91 87 93 100 100 94 70 62 13 42 77 53 84 100 100 100 100 100 100 100 100 100 100 100 100 100 99 100 86 77 82 29 10 5 70 64 69 100 85
99 96 99 100 18 50 100 100 98 100 97 93 25 73 100 100 100 100 41 35 100 83 99 100 100 100 100 100 100 100 100 100 100 100 100 100 92 100 100 95 50 37 20 67 56 100 100 100 95
97 100 92 84 99 100 100 100 100 100 100 100 74 100 74 100 100 100 100 100 100 100 93 100 100 100 100 100 100 100 100 100 100 100 100 100 100 100 100 100 100 96 96 100 100 100 98 95 100
67 99 100 86 93 100 100 100 100 96 100 100 93 96 82 63 56 47 51 100 100 100 100 100 100 100 100 100 100 100 100 100 100 100 100 100 100 100 100 99 100 100 100 100 100 100 100 100 100
5 13 76 100 36 94 100 100 100 12 93 100 100 100 67 47 42 92 78 100 100 100 100 100 100 100 100 100 100 100 100 100 100 100 100 100 100 100 100 100 100 100 100 100 100 100 100 100 100